THORAD DELTA 1 DEB, 8592

Orbit data source: Space-Track

THORAD DELTA 1 DEB, 8592 is space debris in SSO originally from a launch on Fri, 15 Nov 1974 UTC launched from the Air Force Western Test Range (AFWTR). Debris objects in space refer to the collection of defunct objects orbiting the Earth. Examples of debris include non-operational satellites, rocket bodies, and fragments generated from explosions, collisions, or faulty payload assembly.

Loading next visibility...
Identifier
8592, 1974-089DF
Orbit
SSO
Country
Flag of USUS
Related business
Manufacturer
Unknown
Mission
Spacecraft
Bus & Motor
Unknown
Mass
Unknown
Launch date (UTC)
1974-11-15 (51 years ago)
Launch vehicle
Unknown
Launch site
Air Force Western Test Range (AFWTR)
Object type
Payload
Rocket body
Debris
Shape & HBR
Unknown shape, 0.1 m
Radar Cross Section
Small (<0.1 m²)

Expand to show TLE details & history
Last TLE update: 23 hours ago

TLE from 23 hours ago
0 THORAD DELTA 1 DEB
1 08592U 74089DF  26048.19982124  .00000109  00000-0  12337-2 0  9996
2 08592 101.8316 133.4298 0123053 295.4341  91.2588 12.31894108303295
Epoch: 2026-02-17T04:47Z
TLE epoch observation values (Epoch: 2026-02-17T04:47:44.555Z)
Latitude
27.49268°
Longitude
-91.91722°
Altitude
1,547.544 km
Speed
7.094 km/s
True Right ascension
08h 28m 48s
True Declination
27° 21' 58"
Sunlit
Object was in full shadow at epoch
Visualization orbit readout
Latitude
Unknown
Longitude
Unknown
Altitude
Unknown
Speed
Unknown
Apparent Right ascension
Unknown
Apparent Declination
Unknown
Sunlit
N/A
Visualization observer readout
Local Sidereal Time
06:48:09
Azimuth
Unknown
Elevation
Unknown
Doppler factor
Unknown
Orbital elements
Apogee altitude
1,636.147 km
Perigee altitude
1,441.309 km
Semi-major axis
7,916.865 km
Eccentricity
0.01231
Inclination
101.8316°
RAAN
133.4298°
Arg. of periapsis
295.4341°
True anomaly
92.66792°
Mean anomaly
91.2588°
Eccentric anomaly
91.96343°
Mean motion
3.08115 °/min
Orbital period
116.84 mins
BSTAR
0.0012337
Loading maneuver chart data...
Computing Atmospheric mass density...

Documentation

Showing up to 5 results
|